Volver al catálogo

STARLINK-5833

ActivoComunicacionesVLEO
NORAD 55773·PAYLOAD·🇺🇸 United States

Lanzado Mar 3, 2023 desde Vandenberg Space Force Base

Loading…

Próximos Pases (próximas 24 horas)

TLE

ActualizadoSource: CelesTrak SupGP

Época: Sep 14, 2026, 21:57 UTC

1 55773C 23028AJ  26257.91506944 -.00037178  00000+0 -31141-2 0  2578
2 55773  70.0001 107.4338 0003103 272.2031 143.9976 14.98368218    17

Sigue STARLINK-5833 en tiempo real con AllMySat

Download on the App Store